Location: Budapest
(47.4979°N, 19.0402°E)
Time: 23:00:23
(UTC+01:00)

ISS - Pass Details

Date: 02 October 2020
Orbit: 417 x 420 km, 51.6° (Epoch: 26 October)

Event Time Altitude Azimuth Distance (km) Brightness Sun altitude
Rises 20:19:45 0° 293° (WNW) 2,370 1.6 -20.7°
Reaches altitude 10° 20:21:53 10° 287° (WNW) 1,504 0.2 -21.1°
Enters shadow 20:24:57 47° 226° (SW) 567 -3.0 -21.6°
